Regional Weather Roundup
Issued by NWS

Home | Current Version | Previous Version | Graphics & Text | Print | Product List | Glossary On
Versions: 1 2 3 4 5 6 7 8 9 10 11 12 13 14 15 16 17 18 19 20 21 22 23 24 25 26 27 28 29 30 31 32 33 34 35 36 37 38 39 40 41 42 43 44 45 46 47 48 49 50
000
ASUS43 KLSX 212010
RWRMO

WEATHER SUMMARY FOR MISSOURI
NATIONAL WEATHER SERVICE SPRINGFIELD MO
300 PM CDT SAT APR 21 2018

NOTE: "FAIR" INDICATES FEW OR NO CLOUDS BELOW 12,000 FEET WITH NO
       SIGNIFICANT WEATHER AND/OR OBSTRUCTIONS TO VISIBILITY.
       CURRENT SKY AND/OR WEATHER CONDITIONS ARE NOT AVAILABLE FOR
       CHILLICOTHE AND FARMINGTON.

MOZ001>031-035>038-043-044-053-054-212100-
...NORTHERN AND WESTERN MISSOURI...

CITY           SKY/WX    TMP DP  RH WIND       PRES   REMARKS
KANSAS CTY INT CLOUDY    64  33  31 E12       30.16F
KANSAS C DTWN  CLOUDY    64  33  31 E9        30.15F
LEE`S SUMMIT   CLOUDY    64  34  32 E10       30.14F
ST JOSEPH      PTSUNNY   60  32  34 E7G17     30.19F
CHILLICOTHE      N/A     63  31  30 E9        30.21F
KIRKSVILLE     CLOUDY    59  30  33 E13       30.24F

$$
MOZ066>068-077>081-088>096-101>105-212100-
...SOUTHWEST MISSOURI...

CITY           SKY/WX    TMP DP  RH WIND       PRES   REMARKS
SPRINGFIELD    PTSUNNY   67  37  33 SE15      30.08F
JOPLIN         CLOUDY    63  41  44 SE8G17    30.09F
BRANSON        CLOUDY    66  39  37 SE13G22   30.08F

$$
MOZ032>034-039>042-045>050-055>058-069>072-212100-
...CENTRAL MISSOURI...

CITY           SKY/WX    TMP DP  RH WIND       PRES   REMARKS
COLUMBIA       CLOUDY    65  29  25 E10       30.19S
JEFFERSON CITY CLOUDY    66  28  24 E10       30.18S
ROLLA          CLOUDY    68  31  25 E15G22    30.15F
SEDALIA        CLOUDY    65  34  31 E14       30.16F
WHITEMAN AFB   PTSUNNY   66  34  30 E12       30.10F
WARRENSBURG    PTSUNNY   68  32  26 NE10G17   30.13F
OSAGE BEACH    CLOUDY    69  33  26 S7        30.13F

$$
MOZ051-052-059>065-212100-
...EAST CENTRAL MISSOURI...

CITY           SKY/WX    TMP DP  RH WIND       PRES   REMARKS
ST LOUIS INTL  PTSUNNY   66  31  27 E18G25    30.20F
SPIRIT OF STL  CLOUDY    66  31  27 E17G26    30.18F
ST CHARLES     CLOUDY    66  32  28 E21G29    30.20F

$$
MOZ072>076-082>087-097>100-106>115-212100-
...SOUTH CENTRAL AND SOUTHEAST MISSOURI...

CITY           SKY/WX    TMP DP  RH WIND       PRES   REMARKS
CAPE GIRARDEAU FAIR      70  38  31 SE13      30.15F
FARMINGTON     PTSUNNY   66  38  35 E13       30.16F
POPLAR BLUFF   FAIR      70  35  27 SE13G22   30.11F
WEST PLAINS    MOSUNNY   69  33  26 SE10G22   30.12F

$$



USA.gov is the U.S. government's official web portal to all federal, state and local government web resources and services.